EW4725 Weather Reports


time (UTC)temp
C
wind
direction
speed
KPH
gust
KPH
rain 1hr
cm
rain 24hr
cm
rain mn
cm
humidity
%
barometer
mb
20260904045417 20 260 1.6 3.2 0.00 0.00 0.00 84 1012.0
20260904044937 20 283 3.2 6.4 0.00 0.00 0.00 84 1012.0
20260904044437 20 283 4.8 6.4 0.00 0.00 0.00 84 1012.0
20260904043937 20 305 3.2 6.4 0.00 0.00 0.00 83 1012.0
20260904043417 20 260 1.6 3.2 0.00 0.00 0.00 83 1011.9
20260904042917 20 260 3.2 6.4 0.00 0.00 0.00 83 1011.9
20260904042417 20 260 4.8 9.7 0.00 0.00 0.00 83 1011.9
20260904041917 20 283 3.2 4.8 0.00 0.00 0.00 83 1011.9
20260904041417 20 283 3.2 3.2 0.00 0.00 0.00 83 1011.8
20260904040917 20 283 1.6 3.2 0.00 0.00 0.00 83 1011.8
20260904040417 20 260 3.2 4.8 0.00 0.00 0.00 83 1011.7
20260904040037 20 283 4.8 9.7 0.00 0.00 0.00 83 1011.7
20260904035417 20 283 1.6 3.2 0.00 0.00 0.00 82 1011.7
20260904034917 20 283 4.8 9.7 0.00 0.00 0.00 82 1011.7
20260904034437 20 260 4.8 6.4 0.00 0.00 0.00 82 1011.5
20260904033917 20 305 4.8 8.0 0.00 0.00 0.00 82 1011.5
20260904033417 20 283 4.8 9.7 0.00 0.00 0.00 83 1011.5
20260904032917 20 283 3.2 6.4 0.00 0.00 0.00 83 1011.4
20260904032437 20 260 4.8 9.7 0.00 0.00 0.00 83 1011.3
20260904031917 20 283 4.8 8.0 0.00 0.00 0.00 82 1011.3
20260904031417 20 260 6.4 8.0 0.00 0.00 0.00 82 1011.3
20260904030917 20 283 4.8 8.0 0.00 0.00 0.00 81 1011.2
20260904030417 21 260 6.4 9.7 0.00 0.00 0.00 81 1011.2
20260904025917 21 283 4.8 6.4 0.00 0.00 0.00 81 1011.2
20260904025417 21 305 6.4 9.7 0.00 0.00 0.00 80 1011.1
20260904024917 21 283 3.2 4.8 0.00 0.00 0.00 79 1011.0
20260904024417 21 283 8.0 12.9 0.00 0.00 0.00 77 1011.0
20260904023916 21 283 3.2 4.8 0.00 0.00 0.00 76 1011.1
20260904023417 21 305 8.0 12.9 0.00 0.00 0.00 75 1011.1
20260904022917 21 283 6.4 8.0 0.00 0.00 0.00 74 1011.1
20260904022417 21 260 6.4 9.7 0.00 0.00 0.00 73 1011.1
20260904021917 21 283 6.4 8.0 0.00 0.00 0.00 70 1011.1
20260904021417 21 260 9.7 12.9 0.00 0.00 0.00 68 1011.1
20260904020917 22 283 8.0 11.3 0.00 0.00 0.00 69 1011.1
20260904020417 22 260 8.0 11.3 0.00 0.00 0.00 70 1011.1
20260904015917 22 283 4.8 6.4 0.00 0.00 0.00 70 1011.0
20260904015437 22 283 4.8 8.0 0.00 0.00 0.00 70 1011.1
20260904014917 22 260 8.0 11.3 0.00 0.00 0.00 68 1011.1
20260904014417 22 283 6.4 9.7 0.00 0.00 0.00 67 1011.1
20260904013917 22 305 6.4 11.3 0.00 0.00 0.00 65 1011.2
20260904013456 23 283 6.4 9.7 0.00 0.00 0.00 65 1011.2
20260904012917 23 283 6.4 9.7 0.00 0.00 0.00 64 1011.2
20260904012417 23 283 8.0 12.9 0.00 0.00 0.00 63 1011.2
20260904011916 23 283 8.0 14.5 0.00 0.00 0.00 63 1011.1
20260904011417 23 283 4.8 6.4 0.00 0.00 0.00 64 1011.2
20260904010916 23 283 9.7 11.3 0.00 0.00 0.00 64 1011.1
20260904010417 23 305 6.4 11.3 0.00 0.00 0.00 66 1011.1
20260904005917 23 238 9.7 12.9 0.00 0.00 0.00 68 1011.1
20260904005417 23 283 11.3 12.9 0.00 0.00 0.00 68 1011.1
20260904004937 23 260 11.3 14.5 0.00 0.00 0.00 67 1011.1
20260904004416 24 283 11.3 14.5 0.00 0.00 0.00 66 1011.2
20260904003916 24 260 8.0 14.5 0.00 0.00 0.00 67 1011.1
20260904003417 24 283 9.7 14.5 0.00 0.00 0.00 66 1011.1
20260904002917 25 260 12.9 17.7 0.00 0.00 0.00 65 1011.1
20260904002416 25 305 8.0 11.3 0.00 0.00 0.00 65 1011.1
20260904001917 25 283 9.7 12.9 0.00 0.00 0.00 64 1011.1
20260904001416 25 260 9.7 17.7 0.00 0.00 0.00 63 1011.1
20260904000936 25 283 9.7 16.1 0.00 0.00 0.00 62 1011.2
20260904000417 25 305 6.4 9.7 0.00 0.00 0.00 62 1011.2
20260903235917 26 260 9.7 14.5 0.00 0.00 0.00 60 1011.2
20260903235417 26 305 3.2 8.0 0.00 0.00 0.00 60 1011.2
20260903234937 26 283 8.0 14.5 0.00 0.00 0.00 60 1011.3
20260903234416 26 170 3.2 8.0 0.00 0.00 0.00 60 1011.3
20260903233917 26 260 1.6 4.8 0.00 0.00 0.00 60 1011.3
20260903233417 26 238 8.0 11.3 0.00 0.00 0.00 60 1011.3
20260903232956 26 238 3.2 6.4 0.00 0.00 0.00 62 1011.3
20260903232416 26 125 8.0 16.1 0.00 0.00 0.00 61 1011.4
20260903231916 26 148 4.8 9.7 0.00 0.00 0.00 62 1011.5
20260903231416 26 215 3.2 6.4 0.00 0.00 0.00 62 1011.5
20260903230917 26 170 4.8 11.3 0.00 0.00 0.00 61 1011.6
20260903230416 26 260 4.8 9.7 0.00 0.00 0.00 61 1011.6
20260903225916 26 125 6.4 12.9 0.00 0.00 0.00 62 1011.7
20260903225457 26 148 6.4 11.3 0.00 0.00 0.00 62 1011.7
20260903224916 26 125 6.4 11.3 0.00 0.00 0.00 61 1011.7
20260903224416 26 170 4.8 8.0 0.00 0.00 0.00 62 1011.7
20260903223916 26 283 3.2 6.4 0.00 0.00 0.00 61 1011.8
20260903223416 26 125 8.0 12.9 0.00 0.00 0.00 61 1011.8
20260903222916 26 148 3.2 4.8 0.00 0.00 0.00 60 1011.9
20260903222436 26 170 6.4 11.3 0.00 0.00 0.00 60 1012.0
20260903221916 26 170 4.8 11.3 0.00 0.00 0.00 61 1012.1
20260903221417 26 148 9.7 19.3 0.00 0.00 0.00 61 1012.1
20260903220917 26 148 6.4 9.7 0.00 0.00 0.00 61 1012.1
20260903220436 26 193 8.0 11.3 0.00 0.00 0.00 61 1012.2
20260903215936 26 238 6.4 9.7 0.00 0.00 0.00 61 1012.3
20260903215416 26 170 4.8 11.3 0.00 0.00 0.00 61 1012.3
20260903214916 26 238 3.2 8.0 0.00 0.00 0.00 62 1012.3
20260903214416 26 170 4.8 11.3 0.00 0.00 0.00 62 1012.4
20260903213916 25 148 8.0 11.3 0.00 0.00 0.00 62 1012.4
20260903213416 25 125 9.7 12.9 0.00 0.00 0.00 63 1012.4
20260903212916 25 148 8.0 11.3 0.00 0.00 0.00 62 1012.4
20260903212416 26 125 8.0 9.7 0.00 0.00 0.00 60 1012.4
20260903211916 26 193 6.4 8.0 0.00 0.00 0.00 61 1012.4
20260903211416 26 148 4.8 9.7 0.00 0.00 0.00 59 1012.4
20260903210936 25 215 8.0 12.9 0.00 0.00 0.00 60 1012.5
20260903210416 25 283 6.4 8.0 0.00 0.00 0.00 59 1012.6
20260903205936 25 193 6.4 12.9 0.00 0.00 0.00 61 1012.6
20260903205416 26 148 4.8 8.0 0.00 0.00 0.00 61 1012.6
20260903204916 25 148 8.0 12.9 0.00 0.00 0.00 62 1012.7
20260903204457 25 260 8.0 11.3 0.00 0.00 0.00 62 1012.8
20260903203916 26 148 9.7 14.5 0.00 0.00 0.00 62 1012.7
20260903203416 26 148 9.7 12.9 0.00 0.00 0.00 60 1012.7
20260903202916 26 148 8.0 12.9 0.00 0.00 0.00 61 1012.8
20260903202416 26 148 9.7 16.1 0.00 0.00 0.00 59 1012.9
20260903201916 26 148 8.0 11.3 0.00 0.00 0.00 59 1012.8
20260903201436 26 238 6.4 11.3 0.00 0.00 0.00 61 1013.0
20260903200936 25 148 6.4 9.7 0.00 0.00 0.00 59 1013.0
20260903200416 25 215 6.4 11.3 0.00 0.00 0.00 59 1013.1
20260903195916 26 125 8.0 11.3 0.00 0.00 0.00 60 1013.1
20260903195416 25 148 8.0 11.3 0.00 0.00 0.00 61 1013.1
20260903194916 25 170 8.0 11.3 0.00 0.00 0.00 61 1013.1
20260903194416 25 170 9.7 14.5 0.00 0.00 0.00 62 1013.2
20260903193936 25 125 4.8 9.7 0.00 0.00 0.00 60 1013.3
20260903193416 25 148 9.7 14.5 0.00 0.00 0.00 61 1013.4
20260903192916 25 170 8.0 12.9 0.00 0.00 0.00 59 1013.5
20260903192416 26 238 4.8 8.0 0.00 0.00 0.00 59 1013.5
20260903191916 26 238 6.4 11.3 0.00 0.00 0.00 59 1013.6
20260903191416 26 125 1.6 6.4 0.00 0.00 0.00 61 1013.6
20260903190916 26 148 11.3 16.1 0.00 0.00 0.00 60 1013.6
20260903190416 26 215 6.4 11.3 0.00 0.00 0.00 60 1013.7
20260903185916 25 125 1.6 3.2 0.00 0.00 0.00 62 1013.7
20260903185436 25 283 8.0 11.3 0.00 0.00 0.00 61 1013.8
20260903184916 25 215 6.4 11.3 0.00 0.00 0.00 62 1014.0
20260903184416 25 148 3.2 4.8 0.00 0.00 0.00 64 1014.1
20260903183916 24 215 4.8 11.3 0.00 0.00 0.00 65 1014.1
20260903183436 24 148 4.8 6.4 0.00 0.00 0.00 65 1014.1
20260903182916 24 170 4.8 8.0 0.00 0.00 0.00 66 1014.2
20260903182416 24 103 9.7 11.3 0.00 0.00 0.00 66 1014.2
20260903181916 24 125 9.7 16.1 0.00 0.00 0.00 65 1014.3
20260903181416 24 125 4.8 9.7 0.00 0.00 0.00 65 1014.3
20260903180916 24 125 4.8 9.7 0.00 0.00 0.00 66 1014.3
20260903180416 23 125 6.4 16.1 0.00 0.00 0.00 68 1014.2
20260903175936 23 148 9.7 12.9 0.00 0.00 0.00 68 1014.1
20260903175416 24 125 6.4 9.7 0.00 0.00 0.00 66 1014.2
20260903174916 24 125 3.2 9.7 0.00 0.00 0.00 66 1014.2
20260903174416 24 193 4.8 8.0 0.00 0.00 0.00 66 1014.2
20260903173916 24 148 4.8 8.0 0.00 0.00 0.00 67 1014.2
20260903173416 24 125 6.4 11.3 0.00 0.00 0.00 66 1014.2
20260903172916 24 35 1.6 4.8 0.00 0.00 0.00 68 1014.3
20260903172416 23 103 8.0 11.3 0.00 0.00 0.00 67 1014.3
20260903171918 23 148 4.8 6.4 0.00 0.00 0.00 68 1014.3
20260903171416 23 125 11.3 16.1 0.00 0.00 0.00 67 1014.3
20260903170916 23 125 1.6 6.4 0.00 0.00 0.00 68 1014.3
20260903170436 23 125 6.4 16.1 0.00 0.00 0.00 68 1014.2
20260903165916 23 103 6.4 9.7 0.00 0.00 0.00 68 1014.2
20260903165416 23 125 3.2 6.4 0.00 0.00 0.00 70 1014.2
20260903164916 23 103 8.0 12.9 0.00 0.00 0.00 68 1014.2
20260903164416 23 148 6.4 11.3 0.00 0.00 0.00 68 1014.2
20260903163916 23 148 3.2 6.4 0.00 0.00 0.00 70 1014.2
20260903163416 23 125 8.0 11.3 0.00 0.00 0.00 69 1014.2
20260903162915 23 170 3.2 4.8 0.00 0.00 0.00 70 1014.2
20260903162416 22 125 6.4 8.0 0.00 0.00 0.00 70 1014.2
20260903161936 22 238 1.6 6.4 0.00 0.00 0.00 72 1014.2
20260903161415 22 170 6.4 9.7 0.00 0.00 0.00 72 1014.3
20260903160916 22 238 3.2 6.4 0.00 0.00 0.00 72 1014.2
20260903160456 22 0.0 1.6 0.00 0.00 0.00 73 1014.3
20260903155916 22 125 6.4 9.7 0.00 0.00 0.00 72 1014.3
20260903155415 22 125 1.6 3.2 0.00 0.00 0.00 74 1014.3
20260903154916 21 148 3.2 4.8 0.00 0.00 0.00 75 1014.4
20260903154415 21 58 4.8 8.0 0.00 0.00 0.00 75 1014.3
20260903153416 20 58 1.6 3.2 0.00 0.00 0.00 78 1014.2
20260903152916 20 0.0 1.6 0.00 0.00 0.00 78 1014.3
20260903152415 20 125 1.6 3.2 0.00 0.00 0.00 78 1014.3
20260903151915 20 125 1.6 3.2 0.00 0.00 0.00 79 1014.2
20260903151416 20 80 1.6 4.8 0.00 0.00 0.00 79 1014.3
20260903150915 20 0.0 1.6 0.00 0.00 0.00 79 1014.2
20260903150436 19 0.0 1.6 0.00 0.00 0.00 80 1014.3
20260903145916 19 125 3.2 4.8 0.00 0.00 0.00 80 1014.3
20260903144916 18 0.0 1.6 0.00 0.00 0.00 81 1014.3
20260903144416 18 0.0 0.0 0.00 0.00 0.00 82 1014.3
20260903143956 18 0.0 0.0 0.00 0.00 0.00 82 1014.2
20260903143415 18 0.0 0.0 0.00 0.00 0.00 83 1014.1
20260903142915 18 0.0 0.0 0.00 0.00 0.00 84 1014.0
20260903142416 18 0.0 0.0 0.00 0.00 0.00 84 1013.9
20260903141916 17 0.0 0.0 0.00 0.00 0.00 85 1013.8
20260903141435 17 0.0 0.0 0.00 0.00 0.00 85 1013.7
20260903140915 17 0.0 0.0 0.00 0.00 0.00 85 1013.7
20260903140415 17 0.0 0.0 0.00 0.00 0.00 84 1013.6
20260903135935 17 0.0 0.0 0.00 0.00 0.00 85 1013.6
20260903135416 17 0.0 0.0 0.00 0.00 0.00 84 1013.6
20260903134935 17 0.0 0.0 0.00 0.00 0.00 84 1013.5
20260903134415 17 0.0 0.0 0.00 0.00 0.00 84 1013.6
20260903133915 17 0.0 0.0 0.00 0.00 0.00 84 1013.6
20260903133415 17 0.0 0.0 0.00 0.00 0.00 85 1013.6
20260903132916 17 0.0 0.0 0.00 0.00 0.00 85 1013.5
20260903132416 17 0.0 0.0 0.00 0.00 0.00 85 1013.5
20260903131915 17 0.0 0.0 0.00 0.00 0.00 85 1013.5
20260903131415 17 0.0 0.0 0.00 0.00 0.00 85 1013.5
20260903130915 18 0.0 0.0 0.00 0.00 0.00 86 1013.5
20260903130415 17 0.0 0.0 0.00 0.00 0.00 85 1013.5
20260903125915 17 0.0 0.0 0.00 0.00 0.00 85 1013.5
20260903125415 17 0.0 0.0 0.00 0.00 0.00 85 1013.6
20260903124915 17 0.0 0.0 0.00 0.00 0.00 86 1013.6
20260903124416 17 0.0 0.0 0.00 0.00 0.00 86 1013.5
20260903123935 17 0.0 0.0 0.00 0.00 0.00 86 1013.5
20260903123415 17 0.0 0.0 0.00 0.00 0.00 86 1013.5
20260903122915 17 0.0 0.0 0.00 0.00 0.00 86 1013.4
20260903122415 17 0.0 0.0 0.00 0.00 0.00 86 1013.5
20260903121915 17 0.0 0.0 0.00 0.00 0.00 85 1013.5
20260903121436 18 0.0 0.0 0.00 0.00 0.00 85 1013.5
20260903120915 18 0.0 0.0 0.00 0.00 0.00 85 1013.5
20260903120415 18 0.0 0.0 0.00 0.00 0.00 85 1013.5
20260903115936 18 0.0 0.0 0.00 0.00 0.00 85 1013.6
20260903115415 18 0.0 0.0 0.00 0.00 0.00 85 1013.6
20260903114915 18 0.0 0.0 0.00 0.00 0.00 85 1013.6
20260903114415 18 0.0 1.6 0.00 0.00 0.00 85 1013.6
20260903113955 18 0.0 0.0 0.00 0.00 0.00 85 1013.7
20260903113415 18 125 1.6 3.2 0.00 0.00 0.00 85 1013.8
20260903112915 18 125 3.2 4.8 0.00 0.00 0.00 85 1013.8
20260903112435 18 125 1.6 1.6 0.00 0.00 0.00 85 1013.8
20260903111915 18 125 3.2 6.4 0.00 0.00 0.00 85 1013.8
20260903111415 18 0.0 1.6 0.00 0.00 0.00 86 1013.8
20260903110915 18 125 1.6 3.2 0.00 0.00 0.00 86 1013.8
20260903110415 18 0.0 1.6 0.00 0.00 0.00 86 1013.8
20260903105915 18 125 1.6 3.2 0.00 0.00 0.00 86 1013.9
20260903105415 18 125 1.6 3.2 0.00 0.00 0.00 87 1013.9
20260903104915 18 125 1.6 1.6 0.00 0.00 0.00 87 1013.9
20260903104417 18 125 1.6 3.2 0.00 0.00 0.00 87 1013.9
20260903103917 18 125 1.6 6.4 0.00 0.00 0.00 87 1014.0
20260903103417 18 103 1.6 4.8 0.00 0.00 0.00 88 1014.0
20260903102916 18 0.0 1.6 0.00 0.00 0.00 88 1013.9
20260903102437 18 0.0 3.2 0.00 0.00 0.00 88 1013.9
20260903101917 18 80 3.2 4.8 0.00 0.00 0.00 88 1013.9
20260903101417 18 0.0 1.6 0.00 0.00 0.00 88 1014.0
20260903100915 18 125 1.6 1.6 0.00 0.00 0.00 88 1014.0
20260903100417 18 0.0 1.6 0.00 0.00 0.00 88 1014.0
20260903095917 18 0.0 1.6 0.00 0.00 0.00 88 1014.0
20260903095417 18 0.0 1.6 0.00 0.00 0.00 88 1014.0
20260903094917 18 0.0 0.0 0.00 0.00 0.00 87 1014.0
20260903094437 18 0.0 0.0 0.00 0.00 0.00 87 1014.1
20260903093937 18 0.0 0.0 0.00 0.00 0.00 86 1014.1
20260903093417 19 0.0 0.0 0.00 0.00 0.00 87 1014.1
20260903092917 19 0.0 0.0 0.00 0.00 0.00 86 1014.1
20260903092417 18 125 1.6 3.2 0.00 0.00 0.00 86 1014.2
20260903091917 18 0.0 0.0 0.00 0.00 0.00 86 1014.2
20260903091417 18 0.0 0.0 0.00 0.00 0.00 85 1014.3
20260903090917 19 0.0 0.0 0.00 0.00 0.00 85 1014.3
20260903090417 19 0.0 0.0 0.00 0.00 0.00 85 1014.3
20260903085917 19 0.0 0.0 0.00 0.00 0.00 85 1014.4
20260903085417 19 0.0 0.0 0.00 0.00 0.00 85 1014.4
20260903084917 19 0.0 0.0 0.00 0.00 0.00 85 1014.5
20260903084417 19 0.0 0.0 0.00 0.00 0.00 85 1014.5
20260903083917 19 0.0 0.0 0.00 0.00 0.00 85 1014.6
20260903083417 19 0.0 0.0 0.00 0.00 0.00 85 1014.6
20260903082917 19 215 1.6 4.8 0.00 0.00 0.00 85 1014.5
20260903082417 19 0.0 0.0 0.00 0.00 0.00 85 1014.5
20260903081917 19 0.0 1.6 0.00 0.00 0.00 86 1014.6
20260903081417 19 0.0 1.6 0.00 0.00 0.00 87 1014.6
20260903080917 19 193 3.2 4.8 0.00 0.00 0.00 87 1014.6
20260903080437 18 0.0 0.0 0.00 0.00 0.00 86 1014.7
20260903075917 19 0.0 0.0 0.00 0.00 0.00 86 1014.7
20260903075417 18 0.0 0.0 0.00 0.00 0.00 85 1014.8
20260903074917 19 0.0 0.0 0.00 0.00 0.00 84 1014.8
20260903074417 19 0.0 0.0 0.00 0.00 0.00 84 1014.7
20260903073917 19 0.0 0.0 0.00 0.00 0.00 83 1014.7
20260903073417 19 0.0 0.0 0.00 0.00 0.00 83 1014.7
20260903072917 20 0.0 0.0 0.00 0.00 0.00 82 1014.6
20260903072457 20 0.0 0.0 0.00 0.00 0.00 82 1014.6
20260903071917 20 0.0 0.0 0.00 0.00 0.00 82 1014.6
20260903071417 20 125 1.6 3.2 0.00 0.00 0.00 82 1014.6
20260903070937 20 125 3.2 3.2 0.00 0.00 0.00 81 1014.6
20260903070437 20 0.0 1.6 0.00 0.00 0.00 81 1014.6
20260903065915 20 0.0 0.0 0.00 0.00 0.00 80 1014.6
20260903065415 20 0.0 1.6 0.00 0.00 0.00 80 1014.5
20260903064935 20 283 3.2 4.8 0.00 0.00 0.00 80 1014.5
20260903064415 20 0.0 0.0 0.00 0.00 0.00 80 1014.5
20260903063915 20 0.0 0.0 0.00 0.00 0.00 79 1014.5
20260903063415 20 0.0 0.0 0.00 0.00 0.00 79 1014.5
20260903062915 20 0.0 1.6 0.00 0.00 0.00 79 1014.5
20260903062435 20 260 4.8 8.0 0.00 0.00 0.00 79 1014.4
20260903061915 20 260 4.8 8.0 0.00 0.00 0.00 78 1014.4
20260903061415 20 260 6.4 11.3 0.00 0.00 0.00 78 1014.4
20260903060915 21 260 4.8 8.0 0.00 0.00 0.00 77 1014.4
20260903060415 21 260 6.4 11.3 0.00 0.00 0.00 77 1014.4
20260903055915 21 260 8.0 11.3 0.00 0.00 0.00 77 1014.4
20260903055415 20 260 9.7 14.5 0.00 0.00 0.00 77 1014.4
20260903054937 21 260 3.2 4.8 0.00 0.00 0.00 77 1014.4
20260903054435 20 260 9.7 12.9 0.00 0.00 0.00 77 1014.4
20260903053917 20 260 4.8 8.0 0.00 0.00 0.00 77 1014.4
20260903053417 20 260 3.2 4.8 0.00 0.00 0.00 77 1014.4
20260903052917 20 215 4.8 6.4 0.00 0.00 0.00 77 1014.3
20260903052415 20 215 4.8 6.4 0.00 0.00 0.00 77 1014.3
20260903051917 20 215 4.8 8.0 0.00 0.00 0.00 77 1014.3
20260903051417 21 238 4.8 8.0 0.00 0.00 0.00 77 1014.3
20260903050917 21 215 1.6 4.8 0.00 0.00 0.00 77 1014.3
20260903050417 21 238 4.8 6.4 0.00 0.00 0.00 77 1014.3
20260903045917 21 260 4.8 9.7 0.00 0.00 0.00 77 1014.3